This is the latest recevied weather packets stored in our database for station/object F5PQL-4. If no packets are shown the sender has not sent any weather packets the latest 10 day(s).
| Time | Temp. | Humidity | Pressure | Rain* | Wind** | Luminosity | Snow |
|---|---|---|---|---|---|---|---|
| 1777424785 | 14.44° C | 82% | 1015.5 hPa | - | - | - | - |
| 1777423885 | 14.44° C | 82% | 1015.5 hPa | - | - | - | - |
| 1777422985 | 14.44° C | 82% | 1015.7 hPa | - | - | - | - |
| 1777422085 | 15° C | 82% | 1015.6 hPa | - | - | - | - |
| 1777421185 | 15° C | 82% | 1015.6 hPa | - | - | - | - |
| 1777420285 | 15° C | 82% | 1015.6 hPa | - | - | - | - |
| 1777419384 | 15° C | 82% | 1015.6 hPa | - | - | - | - |
| 1777418484 | 15.56° C | 81% | 1015.7 hPa | - | - | - | - |
| 1777417584 | 15.56° C | 80% | 1015.6 hPa | - | - | - | - |
| 1777416684 | 16.11° C | 80% | 1015.5 hPa | - | - | - | - |
| 1777415784 | 16.67° C | 80% | 1015.7 hPa | - | - | - | - |
| 1777414884 | 16.67° C | 80% | 1015.6 hPa | - | - | - | - |
| 1777413984 | 16.67° C | 80% | 1015.5 hPa | - | - | - | - |
| 1777413084 | 16.67° C | 80% | 1015.6 hPa | - | - | - | - |
| 1777412184 | 16.67° C | 80% | 1015.6 hPa | - | - | - | - |
| 1777411283 | 16.11° C | 79% | 1015.7 hPa | - | - | - | - |
| 1777410383 | 16.67° C | 78% | 1015.8 hPa | - | - | - | - |
| 1777409483 | 17.22° C | 78% | 1015.8 hPa | - | - | - | - |
| 1777408583 | 17.22° C | 78% | 1016 hPa | - | - | - | - |
| 1777407683 | 17.22° C | 78% | 1016.2 hPa | - | - | - | - |
| 1777406783 | 17.22° C | 78% | 1016.1 hPa | - | - | - | - |
| 1777405883 | 17.22° C | 79% | 1016.1 hPa | - | - | - | - |
| 1777404983 | 16.67° C | 79% | 1015.9 hPa | - | - | - | - |
| 1777404083 | 16.67° C | 80% | 1015.9 hPa | - | - | - | - |
| 1777403182 | 16.67° C | 80% | 1015.8 hPa | - | - | - | - |
* Rain since midnight (hover to see other rain measurements)
** Current wind speed in m/s (hover to see current wind gust speed)